CPA292 OBBI-VHHH

Flight info

Callsign CPA292
Flight time N/A
Altitude 35000
Route BHR075/12L BHR N697 SODAK P559 AMBOV Q322 LOVEM Q572 SERSA P307 TONVO A777 NADSO B524 ALPOR M504 TELEM A791 SASRO/N0495F370 A791 CEA B465 CTG A599 LINSO/K0917S1130 A599 MAKUL/K0902S1190 A599 POU R473 SIERA
Aircraft A35K/H-SDE2E3GHIJ3J4J5LM1ORWXY/LB1D1

Departure

Time 2026-04-27 16:20
Airport Bahrain International Airport (OBBI)

Arrival

Time N/A
Airport Hong Kong International Airport (VHHH)
Time Latitude Longitude Altitude Speed Heading
2026-04-27 15:36 26.27487 50.61956 21 ft 0 kts 212°
2026-04-27 16:09 26.27490 50.61958 24 ft 2 kts 211°
2026-04-27 16:10 26.27519 50.61977 24 ft 2 kts 208°
2026-04-27 16:10 26.27549 50.61991 23 ft 2 kts 183°
2026-04-27 16:11 26.27564 50.61986 24 ft 2 kts 130°
2026-04-27 16:11 26.27567 50.61983 24 ft 0 kts 125°
2026-04-27 16:15 26.27557 50.62003 22 ft 3 kts 110°
2026-04-27 16:16 26.27576 50.62047 22 ft 4 kts 49°
2026-04-27 16:16 26.27643 50.62053 23 ft 6 kts 323°
2026-04-27 16:17 26.27705 50.61956 23 ft 9 kts 303°
2026-04-27 16:17 26.27784 50.61819 22 ft 12 kts 301°
2026-04-27 16:18 26.27897 50.61663 25 ft 14 kts 333°
2026-04-27 16:18 26.28037 50.61713 27 ft 4 kts 92°
2026-04-27 16:19 26.28023 50.61742 24 ft 5 kts 124°
2026-04-27 16:19 26.27971 50.61831 22 ft 39 kts 122°
2026-04-27 16:20 26.26474 50.64414 508 ft 183 kts 122°
2026-04-27 16:20 26.25815 50.65589 1094 ft 183 kts 120°
2026-04-27 16:20 26.25665 50.68574 1598 ft 209 kts 79°
2026-04-27 16:21 26.25949 50.70230 1786 ft 227 kts 78°
2026-04-27 16:21 26.27701 50.75633 2677 ft 266 kts 45°
2026-04-27 16:22 26.29093 50.77011 3203 ft 270 kts 36°
2026-04-27 16:22 26.32318 50.79282 4227 ft 279 kts 28°
2026-04-27 16:22 26.34032 50.80339 4760 ft 283 kts 27°
2026-04-27 16:23 26.35763 50.81405 5297 ft 286 kts 27°
2026-04-27 16:23 26.39256 50.83624 6409 ft 292 kts 28°
2026-04-27 16:23 26.41012 50.84772 6973 ft 293 kts 28°
2026-04-27 16:24 26.42777 50.85940 7527 ft 296 kts 28°
2026-04-27 16:24 26.46354 50.88322 8641 ft 301 kts 27°
2026-04-27 16:25 26.49985 50.90741 9771 ft 307 kts 27°
2026-04-27 16:25 26.53093 50.92804 10397 ft 322 kts 27°
2026-04-27 16:26 26.57135 50.95481 10811 ft 351 kts 27°
2026-04-27 16:26 26.61493 50.98379 11247 ft 377 kts 27°
2026-04-27 16:27 26.66115 51.01462 11678 ft 399 kts 27°
2026-04-27 16:27 26.73080 51.06776 13003 ft 414 kts 45°
2026-04-27 16:28 26.75617 51.12576 13855 ft 427 kts 81°
2026-04-27 16:28 26.74900 51.19176 14602 ft 434 kts 108°
2026-04-27 16:29 26.71576 51.28669 15742 ft 443 kts 113°
2026-04-27 16:30 26.69305 51.35122 16568 ft 448 kts 112°
2026-04-27 16:30 26.67142 51.41686 17403 ft 452 kts 111°
2026-04-27 16:31 26.63936 51.51696 18484 ft 460 kts 111°
2026-04-27 16:31 26.61760 51.58481 19109 ft 465 kts 112°
2026-04-27 16:32 26.59561 51.65312 19742 ft 471 kts 112°
2026-04-27 16:32 26.58445 51.68767 20001 ft 474 kts 112°
2026-04-27 16:33 26.56197 51.75738 20564 ft 480 kts 112°
2026-04-27 16:33 26.55061 51.79260 20845 ft 483 kts 112°
2026-04-27 16:33 26.53911 51.82807 21109 ft 486 kts 112°
2026-04-27 16:33 26.52753 51.86370 21384 ft 489 kts 113°
2026-04-27 16:34 26.51600 51.89910 21646 ft 492 kts 113°
2026-04-27 16:34 26.50410 51.93506 21924 ft 495 kts 113°
2026-04-27 16:34 26.49205 51.97115 22194 ft 498 kts 113°
2026-04-27 16:34 26.47987 52.00753 22444 ft 501 kts 114°
2026-04-27 16:35 26.46763 52.04410 22694 ft 504 kts 114°
2026-04-27 16:35 26.45534 52.08084 22954 ft 507 kts 113°
2026-04-27 16:35 26.43055 52.15507 23433 ft 513 kts 113°
2026-04-27 16:36 26.41807 52.19252 23663 ft 515 kts 114°
2026-04-27 16:36 26.40554 52.22997 23931 ft 517 kts 114°
2026-04-27 16:36 26.39291 52.26766 24186 ft 518 kts 114°
2026-04-27 16:36 26.38023 52.30541 24440 ft 520 kts 114°
2026-04-27 16:37 26.36754 52.34314 24741 ft 519 kts 113°
2026-04-27 16:37 26.35483 52.38095 25013 ft 520 kts 113°
2026-04-27 16:37 26.34179 52.41864 25220 ft 522 kts 115°
2026-04-27 16:37 26.32794 52.45545 25450 ft 523 kts 116°
2026-04-27 16:38 26.31334 52.49272 25683 ft 525 kts 117°
2026-04-27 16:38 26.29858 52.52997 25927 ft 527 kts 117°
2026-04-27 16:38 26.28375 52.56755 26071 ft 531 kts 117°
2026-04-27 16:38 26.26894 52.60537 26303 ft 533 kts 116°
2026-04-27 16:39 26.25420 52.64332 26564 ft 535 kts 116°
2026-04-27 16:39 26.23945 52.68150 26809 ft 537 kts 116°
2026-04-27 16:39 26.22526 52.71853 27148 ft 536 kts 116°
2026-04-27 16:39 26.21065 52.75677 27378 ft 538 kts 116°
2026-04-27 16:40 26.19593 52.79527 27522 ft 543 kts 116°
2026-04-27 16:40 26.18107 52.83408 27690 ft 546 kts 116°
2026-04-27 16:40 26.16634 52.87250 27928 ft 548 kts 116°
2026-04-27 16:40 26.15139 52.91149 28155 ft 549 kts 116°
2026-04-27 16:41 26.13630 52.95075 28372 ft 551 kts 116°
2026-04-27 16:41 26.12118 52.99005 28580 ft 553 kts 116°
2026-04-27 16:41 26.10602 53.02941 28802 ft 555 kts 116°
2026-04-27 16:41 26.09092 53.06896 29134 ft 554 kts 116°
2026-04-27 16:42 26.07641 53.10813 29396 ft 555 kts 116°
2026-04-27 16:42 26.06189 53.14792 29674 ft 555 kts 115°
2026-04-27 16:42 26.04739 53.18778 29950 ft 555 kts 115°
2026-04-27 16:42 26.03281 53.22780 30174 ft 556 kts 115°
2026-04-27 16:43 26.01838 53.26721 30362 ft 557 kts 115°
2026-04-27 16:43 26.00362 53.30733 30521 ft 559 kts 115°
2026-04-27 16:43 25.98886 53.34735 30768 ft 560 kts 115°
2026-04-27 16:43 25.97406 53.38739 31003 ft 561 kts 115°
2026-04-27 16:44 25.95923 53.42746 31224 ft 562 kts 115°
2026-04-27 16:44 25.94433 53.46765 31436 ft 562 kts 115°
2026-04-27 16:44 25.92944 53.50781 31670 ft 563 kts 115°
2026-04-27 16:44 25.91496 53.54830 31872 ft 565 kts 114°
2026-04-27 16:45 25.90090 53.58914 32091 ft 566 kts 113°
2026-04-27 16:45 25.88703 53.63006 32297 ft 567 kts 113°
2026-04-27 16:45 25.87308 53.67123 32506 ft 567 kts 113°
2026-04-27 16:45 25.85911 53.71225 32715 ft 568 kts 113°
2026-04-27 16:46 25.84507 53.75327 32928 ft 569 kts 113°
2026-04-27 16:46 25.83090 53.79433 33140 ft 569 kts 112°
2026-04-27 16:46 25.81667 53.83529 33441 ft 568 kts 112°
2026-04-27 16:46 25.80243 53.87616 33600 ft 570 kts 112°
2026-04-27 16:47 25.78812 53.91716 33773 ft 571 kts 112°
2026-04-27 16:47 25.77389 53.95792 33940 ft 572 kts 112°
2026-04-27 16:47 25.75954 53.99902 34201 ft 570 kts 112°
2026-04-27 16:47 25.74544 54.04013 34472 ft 569 kts 111°
2026-04-27 16:48 25.73232 54.08159 34715 ft 568 kts 110°
2026-04-27 16:48 25.70722 54.16537 34783 ft 573 kts 109°
2026-04-27 16:49 25.66945 54.29049 34790 ft 572 kts 110°
2026-04-27 16:49 25.64398 54.37321 34788 ft 572 kts 110°
2026-04-27 16:50 25.61801 54.45680 34787 ft 572 kts 110°
2026-04-27 16:50 25.59398 54.53385 34787 ft 566 kts 110°
2026-04-27 16:51 25.56841 54.61578 34784 ft 559 kts 110°
2026-04-27 16:51 25.54271 54.69606 34778 ft 553 kts 111°
2026-04-27 16:52 25.51680 54.77610 34778 ft 557 kts 111°
2026-04-27 16:52 25.48719 54.85638 34774 ft 568 kts 116°
2026-04-27 16:53 25.47125 54.89609 34739 ft 557 kts 116°
2026-04-27 16:53 25.45580 54.93495 34513 ft 548 kts 115°
2026-04-27 16:53 25.43981 54.97289 34052 ft 542 kts 122°
2026-04-27 16:53 25.42103 55.00908 33395 ft 542 kts 123°
2026-04-27 16:54 25.40204 55.04494 33029 ft 534 kts 123°
2026-04-27 16:54 25.38381 55.07957 32715 ft 526 kts 122°
2026-04-27 16:54 25.36553 55.11447 32294 ft 522 kts 122°
2026-04-27 16:54 25.35215 55.15154 31866 ft 519 kts 104°
2026-04-27 16:55 25.34778 55.19092 31463 ft 513 kts 88°
2026-04-27 16:55 25.35025 55.22999 31114 ft 505 kts 83°
2026-04-27 16:55 25.35256 55.26214 30827 ft 501 kts 85°
2026-04-27 16:55 25.35402 55.29666 30534 ft 495 kts 88°
2026-04-27 16:56 25.35512 55.32784 30251 ft 491 kts 88°
2026-04-27 16:56 25.35273 55.36331 29865 ft 485 kts 105°
2026-04-27 16:56 25.34111 55.39765 29492 ft 472 kts 123°
2026-04-27 16:56 25.32195 55.42628 29118 ft 457 kts 139°
2026-04-27 16:57 25.30011 55.45146 28747 ft 452 kts 137°
2026-04-27 16:57 25.27980 55.47781 28365 ft 449 kts 132°
2026-04-27 16:57 25.26115 55.50529 28004 ft 445 kts 129°
2026-04-27 16:57 25.24369 55.53331 27645 ft 441 kts 127°
2026-04-27 16:58 25.22779 55.55928 27342 ft 436 kts 128°
2026-04-27 16:58 25.21090 55.58690 27030 ft 432 kts 128°
2026-04-27 16:58 25.20827 55.59120 26974 ft 431 kts 128°